www.pogodaiklimat.ru
ПОГОДА в Сторлиен аэропорту
Время
(UTC), дата
14 16.02
13 16.02
15 16.02
16 16.02
17 16.02
18 16.02
20 16.02
19 16.02
21 16.02
22 16.02
23 16.02
00 17.02
02 17.02
01 17.02
03 17.02
04 17.02
05 17.02
06 17.02
08 17.02
07 17.02
09 17.02
10 17.02
11 17.02
12 17.02
14 17.02
13 17.02
15 17.02
16 17.02
17 17.02
18 17.02
20 17.02
19 17.02
21 17.02
22 17.02
23 17.02
00 18.02
02 18.02
01 18.02
03 18.02
04 18.02
05 18.02
06 18.02
08 18.02
07 18.02
09 18.02
10 18.02
11 18.02
12 18.02
14 18.02
13 18.02
15 18.02
16 18.02
17 18.02
18 18.02
20 18.02
19 18.02
21 18.02
22 18.02
23 18.02
00 19.02
02 19.02
01 19.02
03 19.02
04 19.02
05 19.02
06 19.02
08 19.02
07 19.02
09 19.02
10 19.02
11 19.02
12 19.02
14 19.02
13 19.02
15 19.02
16 19.02
17 19.02
18 19.02
20 19.02
19 19.02
21 19.02
22 19.02
23 19.02
00 20.02
02 20.02
01 20.02
03 20.02
04 20.02
05 20.02
06 20.02
08 20.02
07 20.02
09 20.02
10 20.02
11 20.02
12 20.02
14 20.02
13 20.02
15 20.02
16 20.02
17 20.02
18 20.02
20 20.02
19 20.02
21 20.02
22 20.02
23 20.02
00 21.02
02 21.02
01 21.02
03 21.02
04 21.02
05 21.02
06 21.02
08 21.02
07 21.02
09 21.02
10 21.02
11 21.02
12 21.02
14 21.02
13 21.02
15 21.02
16 21.02
17 21.02
18 21.02
20 21.02
19 21.02
21 21.02
22 21.02
23 21.02
00 22.02
02 22.02
01 22.02
03 22.02
04 22.02
05 22.02
06 22.02
08 22.02
07 22.02
09 22.02
10 22.02
11 22.02
12 22.02
14 22.02
13 22.02
15 22.02
16 22.02
17 22.02
18 22.02
20 22.02
19 22.02
21 22.02
22 22.02
23 22.02
00 23.02
02 23.02
01 23.02
03 23.02
04 23.02
05 23.02
06 23.02
08 23.02
07 23.02
09 23.02
10 23.02
11 23.02
12 23.02
13 23.02
Ветер
(напр.,м/с)
Видим. Явления Облачность Т
(С)
Тd
(С)
f
(%)
Тe
(С)
Тes
(С)
Комфортность P
(гПа)
Po
(гПа)
Тmin
(С)
Tmax
(С)
R
(мм)
R24
(мм)
S
(см)
Ю 2
{8}
40 км слаб. дождь 10/10 960 м
[]
+2.3 -0.9 79 -1 -1 966.2 898.9
Ю 5
{10}
40 км слаб. дождь 10/10 800 м
[]
+2.5 -1.1 77 -3 -3 967.6 900.2 0.0
Ю 1
{7}
3100 м слаб. ливневой дождь 10/10 700 м
[]
+1.1 -0.4 90 -1 -1 965.5 898.0 0.7
З 1
{2}
1800 м слаб. дождь со снегом 10/10 540 м
[]
+0.1 -0.4 96 -2 -2 965.1 897.5 2
З 1
{3}
50 км в посл. час снег {ливн. осадки} 10/10
[]
+0.3 -0.4 95 -2 -2 965.4 897.8 0.5
ЮЗ 5
{9}
45 км {ливн. осадки, снег} 10/10 1260 м
[]
+1.4 -0.9 85 -4 -4 966.7 899.2 +0.1 +4.2
З 3
{12}
50 км {ливн. осадки, метель} 9/3 270 м
[]
0.0 -1.3 91 -5 -5 968.9 901.0
З 6
{11}
50 км в посл. час дождь {ливн. осадки, метель} 9/1 1110 м
[]
+1.4 -2.0 78 -5 -5 967.8 900.2 0.0
ЮЗ 4
{6}
50 км {ливн. осадки, метель} 9/3
[]
-1.3 -2.5 92 -7 -7 969.4 901.3
Ю 4
{8}
50 км {ливн. осадки, метель} 9/9
[]
-1.2 -6.0 70 -7 -7 969.5 901.4
Ю 5
{10}
50 км {ливн. осадки, метель} 10/9
[]
-0.4 -5.6 68 -6 -6 969.5 901.6
ЮЗ 6
{12}
50 км {ливн. осадки, метель} 9/6
[]
-1.1 -6.0 69 -8 -8 969.4 901.3
Ю 6
{13}
50 км 9/9
[]
-0.8 -5.9 68 -7 -7 969.6 901.6
Ю 6
{13}
50 км 6/6
[]
-0.7 -5.9 68 -7 -7 969.4 901.4
Ю 7
{13}
50 км 9/9
[]
-0.7 -5.7 69 -8 -8 969.4 901.4
Ю 6
{12}
50 км 9/9
[]
-1.1 -5.7 71 -8 -8 969.3 901.2
ЮЗ 6
{14}
50 км 1/0
[]
-1.3 -5.9 71 -8 -8 968.8 900.8
Ю 7
{13}
50 км 1/1
[]
-0.6 -4.9 73 -8 -8 969.1 901.1 -1.5 +1.7
Ю 7
{16}
600 м сильн. снег 10/10 420 м
[]
-1.1 -1.5 97 -9 -9 969.8 901.7 0.4
Ю 7
{13}
50 км 10/10
[]
-0.2 -3.6 78 -7 -7 969.1 901.2
Ю 6
{12}
50 км в посл. час снег {дождь} 9/1 420 м
[]
+0.7 -1.4 86 -6 -6 969.3 901.5 0.1
Ю 7
{13}
50 км {снег, дождь} 9/5
[]
+1.1 -2.4 77 -6 -5 969.0 901.2
Ю 8
{15}
50 км {снег, дождь} 9/9
[]
+1.5 -2.6 74 -5 -5 969.0 901.3
Ю 7
{16}
50 км {снег, дождь} 6/0
[]
+1.7 -2.7 73 -5 -4 968.9 901.3
Ю 8
{14}
50 км ясно +1.9 -2.6 72 -5 -5 967.2 899.7
Ю 7
{13}
50 км 5/0
[]
+1.6 -2.7 73 -5 -5 968.1 900.5
Ю 8
{15}
50 км 9/9
[]
+2.7 -2.3 70 -4 -4 966.4 899.1
Ю 5
{14}
2100 м слаб. дождь со снегом 10/10 480 м
[]
+1.0 -0.2 92 -5 -5 967.3 899.6 0.5
ЮЗ 5
{10}
9000 м слаб. дождь 10/10 570 м
[]
+1.2 +0.2 93 -5 -5 967.4 899.8 1
З 7
{12}
50 км в посл. час дождь 9/3 1500 м
[]
+2.2 +0.1 86 -4 -4 969.5 901.9 -1.2 +2.7
З 9
{17}
4700 м слаб. ливневой снег 10/10 450 м
[]
+0.5 -0.2 95 -7 -7 974.1 905.9
З 8
{15}
8000 м слаб. дождь со снегом 10/10 360 м
[]
+1.1 +0.4 95 -6 -6 971.9 903.9 0.9
З 7
{15}
3400 м слаб. снег 10/10 450 м
[]
+0.4 -0.4 94 -7 -7 975.9 907.5 0.1
З 7
{14}
21 км в посл. час снег {ливн. осадки} 9/9 800 м
[]
+0.5 -1.7 85 -6 -6 976.9 908.5
З 7
{14}
7000 м слаб. снег 10/10 540 м
[]
+0.5 -0.2 95 -7 -7 978.3 909.8 0.1
З 7
{13}
50 км в посл. час снег {ливн. осадки} 9/9 660 м
[]
+1.1 -1.7 82 -6 -6 979.2 910.7
З 6
{13}
12 км в посл. час снег {ливн. осадки, дымка} 9/9 500 м
[]
+0.5 -1.4 87 -6 -6 980.4 911.7 0.0
З 7
{14}
6000 м дымка 9/9 420 м
[]
+0.7 -1.1 88 -6 -6 979.6 911.0
З 7
{15}
50 км в посл. час снег {ливн. осадки, метель} 9/1 450 м
[]
+0.4 -2.6 80 -6 -6 981.3 912.6 0.0
З 8
{16}
50 км {ливн. осадки, метель} 6/6 570 м
[]
+0.4 -3.4 76 -7 -7 981.3 912.6
З 5
{13}
50 км {ливн. осадки, метель} 9/9
[]
+0.2 -3.4 77 -6 -6 981.8 913.1
З 3
{10}
50 км {ливн. осадки, метель} 9/5 870 м
[]
-0.5 -3.8 78 -5 -5 982.1 913.2 -0.5
ЮЗ 4
{9}
1100 м слаб. снег {осадки} 10/10 750 м
[]
-0.5 -1.5 93 -6 -6 983.2 914.3 0.1
ЮЗ 3
{6}
50 км 4/4 1500 м
[]
-1.3 -5.4 74 -6 -6 982.4 913.5
ЮЗ 3
{6}
600 м снег {осадки} 10/10 420 м
[]
-0.9 -1.4 96 -6 -6 983.7 914.7 0.7
ЮЗ 3
{7}
200 м сильн. снег {осадки} 10/10 300 м
[]
-0.6 -1.0 97 -6 -6 983.8 914.8 1
ЮЗ 3
{7}
900 м осадки ?/? 0.0 -0.6 96 -5 -5 984.5 915.5 2
ЮЗ 4
{8}
1400 м слаб. снег {дождь} 10/10 660 м
[]
-0.0 -0.8 94 -6 -6 984.5 915.6 0.2
З 4 11 км в посл. час снег {метель} 10/3 800 м
[]
+0.1 -1.1 92 -5 -5 986.0 916.9 0.2
З 4
{8}
400 м сильн. снег ?/? -0.5 -1.2 95 -6 -6 985.5 916.4 1
З 5
{10}
1800 м слаб. ливневой снег 9/9 300 м
[]
-0.5 -1.2 95 -7 -7 986.7 917.5
З 6
{12}
7000 м слаб. ливневой снег 9/6 360 м
[]
-1.2 -2.0 94 -8 -8 987.3 918.0
З 5
{11}
30 км слаб. ливневой снег 6/6 630 м
[]
-1.5 -2.5 93 -8 -8 987.8 918.4
З 6
{10}
17 км в посл. час снег {ливн. осадки} 3/3 330 м
[]
-1.3 -2.4 92 -8 -8 988.3 918.9 -1.5 +0.2
З 5
{10}
11 км 9/1 180 м
[]
-1.4 -2.5 92 -8 -8 989.1 919.6
З 6
{11}
30 км 6/1 150 м
[]
-1.4 -2.5 92 -9 -9 988.5 919.1
З 3
{8}
50 км в посл. час переохл. осадки (гололёд) 9/8 570 м
[]
-1.1 -2.4 91 -6 -6 989.4 920.0
З 4
{8}
1700 м слаб. снег 10/10 660 м
[]
-0.6 -1.1 96 -6 -6 989.3 919.9 0.1
З 4
{7}
1700 м слаб. снег 10/9 480 м
[]
-0.6 -1.1 96 -6 -6 989.5 920.1 0.3
З 4
{8}
1100 м слаб. снег 10/10 360 м
[]
-0.5 -0.9 97 -6 -6 990.1 920.7 0.5
З 4
{9}
13 км в посл. час снег {ливн. осадки} 10/9 270 м
[]
-1.0 -1.7 95 -7 -7 991.1 921.6 0.1
З 5
{9}
9000 м ливневой дождь {снег} 10/10 270 м
[]
-0.7 -1.2 96 -7 -7 990.5 921.0 0.1
З 5
{11}
1500 м снег {ливн. осадки} 9/9 420 м
[]
-0.8 -1.2 97 -7 -7 991.3 921.7 0.2
З 4
{11}
2000 м осадки {ливн. осадки} 10/10 420 м
[]
-0.8 -1.0 99 -7 -7 992.1 922.5 0.4
СЗ 3
{7}
3300 м слаб. ливневой снег 10/9 450 м
[]
-1.4 -1.8 97 -7 -7 993.3 923.5 0.2
СЗ 1
{8}
50 км в посл. час переохл. осадки (гололёд) 10/10 540 м
[]
-2.4 -3.0 96 -5 -5 994.7 924.7 -2.4 -0.4
С 2
{4}
50 км 10/10 1500 м
[]
-3.3 -4.7 90 -7 -7 997.9 927.6
СЗ 3
{4}
50 км 10/10 1300 м
[]
-3.2 -4.3 92 -9 -9 996.3 926.1
ЮЗ 1
{2}
45 км 10/10 1500 м
[]
-3.2 -4.9 88 -6 -6 999.0 928.6
СЗ 1
{2}
45 км 1/1 330 м
[]
-2.5 -5.2 82 -5 -3 1000.0 929.6
З 2
{5}
40 км ясно -2.4 -5.3 80 -6 -4 1000.9 930.4
З 1
{4}
40 км ясно -1.4 -5.6 73 -3 -1 1001.6 931.2
ЮЗ 1
{4}
50 км 3/1 480 м
[]
-2.7 -6.9 73 -5 -4 1003.5 932.8
Ю 2
{4}
40 км ясно -3.3 -8.0 70 -7 -6 1002.8 932.1
СЗ 1
{3}
50 км 10/9 540 м
[]
-5.0 -8.0 79 -7 -7 1004.3 933.2
ЮЗ 1
{2}
50 км 10/3 360 м
[]
-7.5 -9.8 84 -10 -10 1005.5 934.0
З 1
{3}
50 км 1/0
[]
-9.0 -10.8 87 -11 -11 1006.1 934.3
В 1
{3}
50 км ясно -9.7 -11.5 87 -12 -12 1006.7 934.8 -9.9 -0.6
В 1
{3}
21 км ясно -14.7 -16.2 88 -17 -17 1007.1 934.6
В 1
{4}
45 км ясно -11.3 -12.6 90 -14 -14 1006.9 934.8
З 1
{2}
17 км ясно -16.3 -18.1 86 -19 -19 1007.4 934.6
ЮВ 1
{2}
24 км ясно -17.2 -18.5 90 -20 -20 1007.3 934.4
ЮЗ 1
{2}
45 км ясно -19.0 -20.9 85 -22 -22 1007.2 934.0
В 2
{3}
45 км ясно -19.3 -21.6 82 -25 -25 1006.6 933.4
ЮЗ 5
{9}
35 км ясно -4.6 -8.5 74 -11 -11 1002.2 931.4
СЗ 1
{4}
45 км ясно -19.2 -21.3 83 -22 -22 1005.3 932.3
Ю 5
{10}
50 км ясно -3.5 -8.2 70 -10 -10 1001.3 930.6
Ю 5
{10}
50 км 9/9
[]
-1.9 -6.8 69 -8 -8 999.8 929.5
Ю 8
{14}
1200 м слаб. ливневой снег 9/9
[]
-1.6 -6.5 69 -9 -9 998.2 928.1 0.0
Ю 5
{16}
40 км в посл. час снег {ливн. осадки, метель} 9/9
[]
-1.8 -7.0 68 -8 -8 997.5 927.4 -19.4 -1.5 0.0
Ю 9
{17}
500 м слаб. снег 9/1 500 м
[]
-1.3 -4.1 81 -9 -9 995.9 926.0 0.0
Ю 7
{17}
14 км в посл. час снег {ливн. осадки, метель} 10/5
[]
-1.4 -5.5 74 -9 -9 996.2 926.2 0.0
Ю 9
{16}
700 м слаб. ливневой снег 9/5
[]
-1.0 -4.6 77 -9 -9 995.0 925.2 0.0
Ю 9
{17}
1100 м слаб. ливневой снег 1/1 60 м
[]
-0.8 -4.0 79 -9 -9 994.2 924.5 0.1
ЮЗ 9
{18}
4700 м слаб. ливневой снег 1/1 60 м
[]
-0.3 -3.8 77 -8 -8 993.6 924.0
Ю 11
{21}
700 м слаб. ливневой снег 1/1 60 м
[]
-0.1 -2.9 81 -9 -9 991.7 922.3 0.0
Ю 10
{18}
8000 м в посл. час снег {ливн. осадки, метель} 3/1 1500 м
[]
+0.9 -2.8 76 -7 -7 989.7 920.5 0.0
ЮЗ 8
{19}
19 км слаб. ливневой снег 1/0
[]
+0.5 -3.3 76 -7 -6 991.4 922.1 0.1
Ю 8
{17}
50 км в посл. час снег {ливн. осадки, метель} 10/10 1350 м
[]
+1.4 -3.4 70 -5 -5 988.1 919.1 0.0
Ю 10
{17}
28 км {ливн. осадки, метель} 9/3 800 м
[]
+1.2 -3.2 72 -6 -6 986.3 917.4
ЮВ 8
{18}
50 км {ливн. осадки, метель} 9/9 800 м
[]
+0.6 -3.0 77 -7 -7 984.9 915.9
Ю 8
{17}
35 км {ливн. осадки, метель} 9/1 1500 м
[]
+1.1 -2.8 75 -6 -6 983.5 914.7 +1.6
Ю 6
{13}
1300 м слаб. снег 10/10 700 м
[]
-0.1 -1.0 94 -7 -7 983.7 914.8 0.2
Ю 7
{18}
2900 м слаб. снег 10/10 1110 м
[]
+0.8 -1.8 83 -6 -6 983.7 914.8 0.0
Ю 4
{12}
1100 м слаб. снег 10/10 630 м
[]
-0.1 -0.6 96 -6 -6 983.7 914.8 0.6
ЮЗ 4
{10}
2300 м слаб. снег 10/10 630 м
[]
-0.1 -0.6 96 -6 -6 983.6 914.7 0.4
ЮЗ 3
{9}
3300 м осадки 10/10 1000 м
[]
-0.2 -0.7 96 -5 -5 984.1 915.1 0.2
З 3
{8}
1200 м слаб. снег {осадки} 10/10 450 м
[]
-0.5 -0.7 99 -6 -6 985.1 916.0 0.5
З 2
{5}
9000 м слаб. ливневой снег 10/10 1380 м
[]
-1.0 -1.5 96 -5 -5 986.3 917.1
З 3
{7}
15 км слаб. снег 10/10 720 м
[]
-0.9 -1.2 98 -6 -6 985.9 916.7 0.2
Ю 1
{5}
50 км в посл. час снег {ливн. осадки} 10/10
[]
-1.8 -2.9 92 -4 -4 986.4 917.1 0.0
ЮЗ 2
{4}
50 км {ливн. осадки, снег} 10/10
[]
-2.4 -3.5 92 -7 -7 986.9 917.4
ЮЗ 2
{4}
50 км {ливн. осадки, снег} 9/0
[]
-3.3 -4.8 89 -7 -7 987.6 917.9
Ю 3
{7}
50 км {ливн. осадки, снег} ясно -3.8 -5.3 89 -9 -9 987.5 917.9 -3.9 +1.3
Ю 4
{8}
50 км ясно -4.0 -7.0 80 -10 -10 988.6 918.8
ЮЗ 5
{9}
50 км ясно -4.2 -6.5 84 -11 -11 988.1 918.3
ЮЗ 4
{8}
50 км 1/0
[]
-3.5 -7.6 73 -9 -9 988.4 918.7
Ю 5
{10}
24 км ясно -2.0 -7.2 68 -8 -7 988.0 918.5
Ю 6
{11}
5000 м слаб. ливневой снег {осадки} ясно -1.4 -6.9 66 -8 -7 987.4 918.1 0.1
ЮЗ 6
{13}
8000 м слаб. ливневой снег {осадки} ясно -1.1 -6.6 66 -8 -7 986.9 917.6 0.0
Ю 9
{16}
4300 м слаб. ливневой снег {метель} 6/4 2000 м
[]
+0.3 -5.1 67 -7 -7 984.0 915.1 0.0
Ю 7
{15}
900 м слаб. ливневой снег 4/0
[]
-0.8 -4.6 75 -8 -8 985.5 916.3 0.0
Ю 9
{18}
7000 м в посл. час снег {ливн. осадки, метель} 10/10 1470 м
[]
+0.6 -4.1 71 -7 -7 981.9 913.2 0.0
Ю 9
{18}
4400 м слаб. ливневой снег {метель} 9/8 2000 м
[]
+0.2 -2.9 80 -8 -8 981.7 912.9 0.0
Ю 9
{18}
45 км в посл. час снег {ливн. осадки, метель} 9/5
[]
+0.4 -3.0 78 -7 -7 981.4 912.7 0.0
Ю 8
{16}
40 км {ливн. осадки, метель} 9/8 2000 м
[]
+0.7 -2.5 79 -6 -6 980.5 911.9 -4.5 +0.7
ЮЗ 6
{14}
3200 м слаб. снег 9/9 800 м
[]
+1.8 -0.6 84 -4 -4 980.4 912.0 0.0
ЮЗ 6
{14}
50 км 10/6 1500 м
[]
+0.9 -2.5 78 -5 -5 979.6 911.1
З 3
{19}
5000 м слаб. снег ?/? -0.3 -0.5 99 -5 -5 981.4 912.6 0.8
З 3
{8}
30 км слаб. ливневой дождь 10/10 1000 м
[]
0.0 -0.2 99 -5 -5 981.4 912.7
ЮЗ 4
{8}
50 км в посл. час снег {ливн. осадки} 10/5 1020 м
[]
+0.8 +0.6 99 -5 -5 980.8 912.2
ЮЗ 4
{10}
12 км слаб. снег 10/1 660 м
[]
+1.0 +0.5 96 -4 -4 979.9 911.3
З 6
{12}
1500 м слаб. снег 10/10 600 м
[]
+0.5 +0.1 97 -6 -6 979.4 910.9 0.1
ЮЗ 4
{8}
50 км в посл. час снег {ливн. осадки} 10/4
[]
+0.9 +0.2 95 -5 -5 978.4 909.9
З 4
{11}
1400 м слаб. ливневой снег 10/10 600 м
[]
-0.2 -0.5 98 -6 -6 978.6 910.0 0.1
ЮЗ 2
{7}
40 км в посл. час снег {ливн. осадки} 10/10
[]
-0.6 -1.2 96 -5 -5 977.5 908.9
ЮЗ 6
{10}
50 км в посл. час снег {ливн. осадки} 10/4 2000 м
[]
+1.1 -0.2 91 -5 -5 975.8 907.5
ЮЗ 2
{10}
50 км {ливн. осадки, снег} 10/0
[]
+0.7 -0.2 94 -3 -3 974.5 906.3 -0.9 +2.6
ЮЗ 4
{7}
50 км 9/9
[]
+0.9 -0.9 88 -4 -4 972.3 904.3
Ю 3
{6}
50 км 9/5 1500 м
[]
+0.5 -0.8 91 -4 -4 973.6 905.5
ЮЗ 3
{7}
50 км 9/8
[]
+1.1 -2.1 79 -3 -3 972.2 904.2
СЗ 3
{11}
5000 м слаб. переохл. дождь (гололёд) 10/9 120 м
[]
-0.7 -1.5 94 -6 -6 972.3 904.1
З 4
{7}
50 км в посл. час переохл. осадки (гололёд) 10/10 500 м
[]
-0.6 -1.4 94 -6 -6 971.7 903.6 0.4
З 6
{12}
26 км {ливн. осадки, снег} 8/8 800 м
[]
-0.2 -3.4 79 -7 -7 971.5 903.4
З 4
{11}
50 км 3/0
[]
-0.7 -3.7 80 -6 -6 972.0 903.8
З 4
{10}
20 км 8/8 600 м
[]
-0.1 -3.3 79 -5 -5 971.7 903.6
З 6
{9}
50 км 9/9 800 м
[]
-0.6 -4.3 76 -7 -7 972.1 903.9
З 7
{12}
50 км 9/3 800 м
[]
-1.4 -4.9 77 -9 -9 972.6 904.2
З 7
{13}
50 км в посл. час снег {ливн. осадки} 10/5 840 м
[]
-1.2 -5.2 74 -8 -8 972.5 904.2 0.0
З 7
{14}
50 км в посл. час снег {ливн. осадки} 8/1 1500 м
[]
-1.2 -5.5 73 -8 -8 972.4 904.1 -1.6 +1.1
ЮЗ 4
{10}
8000 м слаб. ливневой снег 10/5 1110 м
[]
-1.6 -5.5 75 -7 -7 972.9 904.6
З 6
{14}
2800 м слаб. ливневой снег 10/6 700 м
[]
-1.8 -3.7 87 -9 -9 973.2 904.8 0.0
ЮЗ 5
{10}
50 км в посл. час снег {ливн. осадки} 10/10 1320 м
[]
-1.8 -7.0 68 -8 -8 972.9 904.5
ЮЗ 4
{11}
50 км {ливн. осадки, снег} 10/9 1500 м
[]
-3.0 -7.3 72 -9 -9 972.8 904.2
ЮЗ 3
{9}
50 км {ливн. осадки, снег} 9/1 1500 м
[]
-2.3 -8.2 64 -7 -7 972.5 904.1
ЮЗ 3
{8}
24 км осадки {ливн. осадки} 9/1 1140 м
[]
-2.2 -7.3 68 -7 -7 972.4 904.0
З 9
{17}
500 м слаб. снег {осадки} 10/10 360 м
[]
-0.8 -1.0 99 -9 -9 972.5 904.3 0.2
ЮЗ 6
{11}
200 м сильн. снег {осадки} ?/? -2.1 -2.7 96 -9 -9 972.1 903.8 0.4
З 8
{15}
700 м слаб. снег {осадки} 10/10 240 м
[]
-0.6 -0.7 99 -9 -9 974.4 906.1 0.7
З 7
{14}
300 м слаб. снег {осадки} 10/9 240 м
[]
-1.0 -1.1 99 -9 -9 975.8 907.3 0.6
З 6
{14}
200 м сильн. снег {осадки} 10/10 360 м
[]
-1.0 -1.1 99 -8 -8 977.1 908.5 0.5
З 7
{16}
100 м слаб. ливневой снег 10/9 210 м
[]
-1.5 -1.8 98 -9 -9 978.9 910.1 -3.0 -0.5 0.6
З 9
{18}
900 м слаб. ливневой снег {дождь} 10/5 360 м
[]
-2.1 -2.6 96 -11 -11 981.5 912.5 0.2
З 9
{16}
2200 м слаб. переохл. дождь (гололёд) 10/8 330 м
[]
-1.6 -1.9 98 -10 -10 980.3 911.4 0.4
З 8
{18}
12 км в посл. час снег {ливн. осадки} 10/3 270 м
[]
-2.2 -2.9 95 -11 -10 982.2 913.1 0.1
З 7
{15}
30 км {ливн. осадки, снег} 9/9 500 м
[]
-2.1 -4.3 85 -10 -10 982.6 913.5
З 8
{17}
27 км {ливн. осадки, снег} 9/8 600 м
[]
-2.1 -5.3 79 -10 -10 983.0 913.9
З 9
{15}
800 м слаб. снег 9/9 500 м
[]
-2.6 -4.1 89 -11 -11 982.9 913.7 0.0
З 8
{17}
2000 м слаб. снег 10/10 540 м
[]
-2.6 -3.8 91 -11 -11 983.1 913.9 0.0
Местоположение метеостанции Сторлиен аэропорт (Швеция): широта 63.28 долгота 12.12 высота над уровнем моря 583 м.
В архиве по умолчанию представлена погода в Сторлиен аэропорту за последнюю неделю. Архивные данные за месяц целиком и за предыдущие месяцы, начиная с января 2011 года, Вы можете получить, выбрав интересующий диапазон дат из раскрывающегося списка и нажав кнопку "Найти!".
*Определитесь, кто Вы:
Внимание! Время в таблицах - всемирное. Для получения местного времени необходимо прибавить поправку, которая равна 1 ч.
Смотрите также архив погоды в соседних городах и на ближайших метеорологических станциях:
Партнеры нашего сайта:      
Пояснения к столбцам:
  • Ветер - указаны скорость ветра в м/с - средняя за 10 мин, порывы в срок и между сроками (в фигурных скобках) и направление, откуда дует ветер: С - северный,
  • СВ - северо-восточный, В - восточный, ЮВ - юго-восточный, Ю - южный, ЮЗ - юго-западный, З - западный, СЗ - северо-западный.
  • Видимость - горизонтальная дальность видимости в метрах или километрах. При видимости от 1 до 10 км при отсутствии осадков обычно наблюдается дымка, при ухудшении видимости до 1 км и менее - туман. В сухую погоду видимость может ухудшаться дымом, пылью или мглою.
  • Явления - указаны атмосферные явления, наблюдавшиеся в срок или в последний час перед сроком; фигурными скобками обозначены явления, наблюдавшиеся между сроками (за 1-3 часа до срока); квадратными скобками обозначены град или гололедные отложения с указанием их диаметра в мм.
  • Облачность - указаны через наклонную черту общая и нижняя облачность в баллах и высота нижней границы облаков в метрах; квадратными скобками обозначены формы облаков: Ci - перистые, Cs - перисто-слоистые, Cc - перисто-кучевые, Ac - высококучевые, As - высокослоистые, Sc - слоисто-кучевые, Ns - слоисто-дождевые, Cu - кучевые, Cb - кучево-дождевые. Подробнее классификацию облаков см. в Атласе облаков (PDF).
  • T - Температура воздуха - температура, измеренная на высоте 2 м над землей.
  • Td - Температура точки росы - температура, при понижении до которой содержащийся в воздухе водяной пар достигнет насыщения.
  • f - Относительная влажность воздуха - влажноcть воздуха, измеренная на высоте 2 м над землей.
  • Te - Эффективная температура - температура, которую ощущает одетый по сезону человек в тени. Характеристика душности погоды. При расчете учитывается влияние влажности воздуха и скорости ветра на теплоощущения человека.
  • Tes - Эффективная температура на солнце - температура, которую ощущает человек, с поправкой на солнечный нагрев. Характеристика знойности погоды. Зависит от высоты солнца над горизонтом, облачности и скорости ветра. Ночью, в пасмурную погоду, а также при ветре 12 м/с и более поправка равна нулю.
  • P - Атмосферное давление - приведенное к уровню моря атмосферное давление.
  • Po - Атмосферное давление - измеренное на уровне метеостанции атмосферное давление.
  • Tmin - Минимальная температура - минимум температуры воздуха на высоте 2 м над землей.
  • Tmax - Максимальная температура - максимум температуры воздуха на высоте 2 м над землей.
  • R - Количество осадков - Количество выпавших осадков за период времени, мм. При наведении курсора мыши на число - период времени, за который выпало указанное количество осадков.
  • R24 - Количество осадков - Количество выпавших осадков за 24 часа, мм.
  • S - Снежный покров - Высота снежного покрова, см. При наведении курсора мыши на число - состояние снежного покрова и степень покрытия местности в баллах.